CAPE
19 18 18 11 0 0 0 0 0 0 0 0 0 0 0 0 0 0 0 0 0 0 0 0 0 0 14 37 45 116 51 60 72 65 43 35 45 44 69 63 41 69 78 57
19 23 15 4 0 0 0 0 0 0 0 3 0 0 0 0 1 11 9 11 11 13 13 17 7 3 0 67 68 36 18 113 106 66 98 73 64 62 3 1 18 24 52 137
25 16 11 8 0 0 0 0 4 5 3 0 1 0 0 1 6 7 1 12 26 16 21 61 13 28 46 83 11 0 13 75 175 75 15 40 95 51 31 5 14 13 0 0
18 13 9 7 0 0 1 5 5 4 16 19 4 1 0 1 1 0 0 53 10 11 11 60 84 55 23 14 55 33 4 231 81 11 0 13 8 0 0 3 0 1 0 0
12 16 21 8 3 0 5 11 9 2 17 7 3 0 0 0 3 0 0 3 4 2 4 16 159 118 118 56 68 34 7 122 96 24 0 27 7 0 0 0 0 0 1 5
28 24 27 16 15 0 14 8 3 15 3 8 2 4 2 1 1 1 5 3 3 8 6 15 34 35 27 23 14 75 29 27 119 40 17 11 0 0 0 0 0 27 29 29
39 36 35 28 15 0 11 16 4 18 10 5 1 0 0 0 4 13 9 2 26 11 1 1 69 59 56 56 42 25 44 26 18 12 1 0 9 0 0 0 13 12 16 74
44 42 41 29 38 0 14 22 26 26 16 3 1 1 0 0 7 7 0 2 17 0 12 75 52 145 127 85 44 59 81 185 64 24 13 0 0 0 0 4 26 16 10 31
51 39 42 35 42 9 33 41 24 8 9 7 0 2 2 10 17 9 0 0 0 32 33 23 29 117 54 17 33 63 0 42 154 44 1 0 106 0 0 0 13 7 6 10
56 51 50 40 43 39 46 40 17 14 18 6 8 16 18 14 20 19 7 6 4 11 31 20 82 81 62 33 37 101 140 139 134 84 19 8 1 0 0 0 3 14 4 3
71 40 54 42 43 43 46 33 34 22 16 8 1 3 8 19 24 32 17 9 20 14 29 25 24 59 143 86 47 81 104 124 118 65 18 9 0 17 8 10 7 2 3 4
56 39 15 17 31 38 26 44 32 39 26 11 3 2 0 1 6 17 10 15 29 30 58 24 22 83 141 129 108 98 143 133 159 132 124 5 4 5 6 4 5 8 6 6
52 39 30 40 51 44 28 50 46 39 60 17 6 0 0 0 0 0 17 17 27 38 64 38 38 45 48 115 130 143 96 3 23 32 8 12 15 7 6 7 7 4 5 3
58 47 35 35 47 49 46 41 7 17 34 27 2 0 0 0 0 0 1 0 3 35 46 36 34 48 32 35 42 40 11 18 9 18 15 8 12 13 8 8 5 5 11 10
49 31 21 25 42 52 79 57 35 30 28 32 12 0 0 0 0 0 0 4 9 28 15 39 36 37 43 72 19 9 12 15 17 15 11 5 11 12 9 7 9 12 6 6
21 10 13 39 49 59 94 3 10 0 13 62 30 3 0 0 0 0 1 9 11 9 31 36 47 46 49 31 39 13 11 9 17 8 8 7 9 8 7 5 7 6 5 3
4 8 33 33 38 55 1 32 8 13 3 21 29 13 0 0 1 5 8 15 21 37 26 31 33 26 28 57 48 16 9 9 9 21 12 7 8 4 3 1 0 0 0 0
19 19 28 44 37 4 6 6 8 5 3 16 40 5 2 42 158 122 33 48 41 58 53 44 38 27 45 31 9 7 8 9 5 8 7 3 3 0 0 0 0 0 0 0
24 33 22 0 5 18 32 24 11 6 18 36 7 21 136 43 121 95 52 39 31 34 37 32 23 25 23 6 6 4 4 5 9 7 2 1 1 0 0 0 0 0 0 0
22 7 10 10 20 22 13 34 60 41 29 34 12 1 61 20 33 17 46 58 66 33 23 43 39 19 5 4 4 5 1 2 5 6 5 4 2 2 1 1 2 1 2 2
8 22 16 28 39 38 26 7 12 7 5 5 4 7 15 37 75 67 57 11 22 9 24 22 27 7 5 5 3 3 2 1 1 2 3 3 3 2 2 3 2 3 2 4
10 19 17 36 22 8 6 2 7 9 0 18 13 6 12 37 46 64 12 23 15 14 18 29 18 6 6 4 2 1 2 3 3 3 3 3 3 4 3 4 4 4 3 2
34 20 23 10 10 8 6 3 9 12 10 26 12 14 22 38 17 25 46 15 117 16 50 18 6 7 7 5 1 1 2 2 2 4 3 5 5 4 3 3 3 3 2 1
7 2 1 8 4 5 3 8 13 13 4 20 21 55 60 25 38 23 18 11 10 34 13 7 7 6 7 3 1 0 4 3 4 4 2 1 0 1 1 1 1 0 0 0
1 0 0 4 4 3 5 6 4 2 7 10 15 16 38 16 15 10 7 9 12 4 6 8 9 8 4 2 3 2 1 1 3 2 1 1 1 1 2 2 3 0 0 0
0 1 3 3 3 5 13 13 6 3 4 18 13 8 10 5 4 2 2 1 2 7 8 12 7 2 1 1 1 1 2 3 4 3 3 2 1 1 2 0 0 0 0 0
0 5 5 7 6 6 5 4 3 5 9 20 0 0 2 2 1 0 0 6 9 11 13 13 6 2 2 1 1 1 2 4 4 3 4 2 2 1 0 1 1 0 0 0
CIN
-3 -3 -1 -1 0 0 0 0 0 0 0 0 0 0 0 0 0 0 0 0 0 0 0 0 0 0 -1 -0 -2 -0 -1 -0 0 0 0 -0 0 -0 0 0 0 0 0 0
-4 -2 -1 -7 0 0 0 0 0 0 0 0 0 0 0 0 0 0 0 0 0 0 0 0 0 0 0 0 -6 -12 -13 0 0 0 0 0 0 -0 -6 0 0 0 0 0
-1 -2 -1 -4 0 0 0 0 0 0 0 0 0 0 0 0 0 0 0 0 0 0 0 0 0 0 -0 -1 -14 0 0 -0 0 0 -6 -0 0 0 0 0 -1 -0 0 0
-1 -1 -0 -2 0 0 0 0 0 0 0 0 0 0 0 0 0 0 0 0 -0 0 0 -0 0 0 0 0 -9 -4 -1 0 -0 -17 0 0 -1 -9 0 0 0 0 0 0
-0 -0 0 -0 -1 0 0 0 0 0 0 0 0 0 0 0 0 0 0 0 0 0 0 0 0 0 0 0 -0 0 -23 -0 0 -4 0 0 -0 0 0 0 0 0 0 -3
-0 0 0 -0 -1 0 0 0 0 0 0 0 0 0 0 0 0 0 0 0 0 0 0 -0 -0 -5 -12 -12 -3 0 0 0 0 0 -0 0 -1 0 0 0 0 -0 0 -3
-0 -0 -0 -0 -1 0 0 -0 0 0 0 0 0 0 0 0 0 0 0 0 0 0 0 0 -24 -33 -21 -2 -1 -1 -1 0 0 -0 -0 0 -1 0 0 0 0 0 -0 0
-0 -1 -2 -2 -0 0 0 0 0 0 0 0 0 0 0 0 0 0 0 0 0 0 -1 -7 -7 0 0 -1 -11 -0 0 0 -0 0 0 0 0 0 0 0 0 -8 0 0
-0 -0 -1 -1 -0 -2 -0 0 0 0 0 0 0 0 0 0 0 0 0 0 0 -1 0 0 -1 -0 -0 0 -0 -1 -3 0 0 -0 0 0 -2 0 0 0 0 0 0 0
-0 -0 -0 0 -0 0 0 0 0 0 0 0 0 0 0 0 0 0 0 0 0 0 0 0 0 -0 -0 -0 0 -5 -4 0 0 -0 -2 0 -2 0 -4 0 -1 -0 0 0
-0 -2 -2 -2 -3 -0 0 0 0 0 0 0 0 0 0 0 0 0 0 0 0 0 0 0 0 -3 0 -1 -2 -0 0 0 -0 -0 -11 0 0 -24 -1 0 -5 0 0 0
-3 -2 -6 -4 -3 -1 -0 0 0 0 0 0 0 0 0 0 0 0 0 0 0 0 0 0 0 -1 0 0 0 -7 -0 -0 0 0 -4 0 0 0 0 0 0 0 0 0
-3 -1 0 0 0 0 0 0 0 0 0 0 0 0 0 0 0 0 0 0 0 0 0 0 0 -0 0 0 0 0 -0 -2 -3 -6 0 0 0 0 0 0 0 0 0 0
-1 -0 0 0 -1 -0 0 0 -3 -0 0 0 0 0 0 0 0 0 0 0 0 0 0 0 0 0 0 -1 -1 0 -0 -1 0 0 0 0 0 0 0 0 0 0 0 0
-0 -1 -2 0 -0 -0 -1 -1 -0 0 0 0 0 0 0 0 0 0 0 0 0 0 0 0 0 0 -1 -2 0 0 0 0 0 0 0 0 0 0 0 0 0 0 0 0
-1 -5 -0 0 -1 -0 0 -9 -1 -1 -3 0 0 0 0 0 0 0 0 0 0 0 0 0 0 0 0 0 -1 0 0 0 0 0 0 0 0 0 0 0 0 0 0 0
-0 0 0 0 0 -1 0 0 0 -0 0 0 0 0 0 0 0 -1 0 0 0 0 0 0 0 0 0 0 -3 0 0 0 0 0 0 0 0 0 0 0 0 0 0 0
0 -0 -0 -0 -0 0 0 0 -0 0 0 -0 0 0 0 -8 0 0 0 0 0 0 0 0 0 0 0 0 0 0 0 0 0 0 0 0 0 0 0 0 0 0 0 0
0 -0 -0 0 0 0 0 0 0 -0 0 0 0 0 0 -13 0 0 0 0 0 0 0 0 0 0 0 0 0 0 0 0 0 0 0 0 0 0 0 0 0 0 0 0
-0 0 0 0 0 0 0 0 0 0 0 0 0 0 -0 -1 -11 -0 0 0 0 0 0 0 0 0 0 0 0 0 0 0 0 0 0 0 0 0 0 0 0 0 0 0
0 0 0 0 0 0 0 0 0 0 0 0 0 0 0 0 0 0 0 0 0 0 0 0 0 -0 0 0 0 0 0 0 0 0 0 0 0 0 0 0 0 0 0 0
-0 0 0 0 0 0 0 0 0 0 0 0 0 0 0 0 0 0 -0 0 0 0 0 0 0 0 0 0 0 0 0 0 0 0 0 0 0 0 0 0 0 0 0 0
0 -0 0 0 0 0 0 0 0 0 0 0 0 0 0 0 0 0 0 0 0 0 -0 -0 0 0 0 0 0 0 0 0 0 0 0 0 0 0 0 0 0 0 0 0
0 0 0 0 0 0 0 0 0 -0 0 0 0 0 0 0 0 0 0 0 0 0 0 0 0 0 0 0 0 0 0 0 0 0 0 0 0 0 0 0 0 0 0 0
-3 0 0 0 0 0 0 0 -0 0 0 0 0 0 0 0 0 0 0 0 0 0 0 0 0 0 0 0 0 0 0 0 0 0 0 0 0 0 0 0 0 0 0 0
0 0 0 0 0 0 0 0 0 0 0 0 0 0 0 0 0 0 0 0 0 0 0 0 0 0 0 0 0 0 0 0 0 0 0 0 0 0 0 0 0 0 0 0
0 0 0 0 0 0 0 0 0 0 0 0 0 0 0 0 0 0 0 0 0 0 0 0 0 0 0 0 0 0 0 0 0 0 0 0 0 0 0 0 0 0 0 0
Wind_Speed
8 6 5 3 2 2 2 1 1 4 7 2 2 4 3 3 3 1 4 6 8 11 12 16 15 16 9 9 9 8 3 6 11 15 7 8 10 8 9 5 5 2 4 2
8 7 5 3 1 3 1 2 2 1 5 3 4 5 3 1 2 5 3 4 5 9 12 9 11 16 15 5 4 6 7 5 8 8 7 10 11 7 5 3 2 4 5 3
8 7 5 3 2 3 1 2 3 3 3 4 5 3 3 3 3 2 3 7 7 9 10 13 12 14 7 5 12 4 8 7 11 9 3 3 9 11 10 6 4 4 6 12
7 7 5 5 2 3 2 2 2 2 5 5 4 2 1 1 3 3 1 3 1 6 7 15 12 18 19 16 4 2 3 8 12 5 2 13 4 7 8 11 10 7 9 12
8 7 7 6 5 2 1 3 2 2 6 5 3 3 2 2 1 3 2 4 10 12 9 13 15 11 12 11 5 3 1 5 10 7 8 17 10 10 8 8 5 9 12 12
9 8 7 6 8 4 2 2 2 3 4 5 2 3 2 2 7 4 7 9 14 11 7 10 17 17 16 17 14 4 3 6 10 6 8 8 11 11 5 4 4 5 8 13
10 9 8 9 11 1 1 3 2 2 4 3 2 2 6 8 9 11 12 13 9 8 17 19 19 19 19 19 18 11 4 11 5 4 3 6 8 3 1 3 2 9 8 11
12 9 8 7 14 7 2 3 2 1 2 3 4 6 7 7 7 11 12 10 8 15 12 8 10 7 9 14 18 12 12 4 4 2 3 6 3 6 6 7 5 10 11 12
14 11 9 9 12 10 4 3 1 2 1 3 4 5 3 6 5 6 5 8 11 6 4 4 6 5 5 6 6 6 7 12 8 3 1 2 8 4 9 7 4 11 13 13
11 10 11 11 12 15 6 3 5 2 2 3 4 4 5 2 4 5 6 10 5 1 4 5 6 8 9 5 8 7 6 8 11 6 4 2 7 10 6 7 6 12 11 12
11 10 11 10 11 17 8 4 8 4 3 4 6 5 7 7 5 5 7 7 0 5 5 4 4 4 5 2 2 5 6 6 4 3 3 3 14 2 5 7 5 7 9 10
12 10 9 9 8 17 11 3 6 5 3 4 4 9 12 14 11 7 2 5 5 3 5 4 5 4 6 6 3 4 2 6 4 6 6 6 9 9 6 8 7 5 8 10
13 11 11 10 11 15 14 4 6 3 2 7 9 9 9 13 16 10 4 3 0 3 0 4 4 5 5 5 5 5 5 8 3 5 10 9 8 9 10 11 11 11 12 12
13 12 11 10 10 12 17 6 6 3 0 4 2 2 7 5 10 14 16 13 9 6 6 5 4 4 4 3 5 4 4 8 6 4 6 7 9 9 9 12 11 12 12 11
13 11 11 11 11 10 6 6 8 10 6 3 3 7 5 6 7 10 11 11 9 5 4 3 4 4 4 2 3 3 5 4 4 3 5 7 6 9 10 11 11 9 10 12
12 11 12 12 12 11 4 2 5 10 5 3 3 2 4 3 4 8 9 6 5 3 3 4 4 4 4 4 1 5 5 5 7 3 10 13 10 10 10 11 10 10 11 10
12 12 12 11 11 6 4 2 4 14 7 3 3 4 4 2 3 3 4 6 3 4 3 4 5 5 3 3 1 5 6 7 8 5 8 7 4 6 8 9 9 10 10 10
12 11 11 12 8 8 2 2 4 9 4 3 3 3 3 6 4 4 3 4 4 5 3 2 5 3 3 1 5 5 5 6 10 10 10 11 9 8 6 6 6 7 8 8
11 7 4 4 1 4 3 17 10 1 3 3 3 3 3 4 3 3 3 4 4 2 4 3 3 3 3 5 6 5 7 5 5 6 7 7 7 6 6 5 5 6 7 8
6 6 2 3 2 25 14 2 3 3 4 3 4 2 4 5 4 4 3 3 3 3 4 4 4 2 6 6 6 6 5 6 2 5 5 4 5 6 6 7 7 7 7 7
1 3 2 6 20 3 2 3 4 3 4 5 4 8 4 5 4 5 5 3 2 4 4 5 4 3 5 6 7 6 6 6 8 7 5 4 6 6 7 8 8 8 8 8
4 6 5 3 2 2 3 4 4 5 4 5 5 5 6 4 3 3 4 4 5 5 6 4 3 5 7 6 6 6 6 6 7 6 7 7 7 7 8 8 8 9 9 8
6 3 5 4 3 5 6 7 5 4 4 5 5 5 4 4 3 3 4 6 4 5 4 0 4 7 6 6 6 6 5 6 7 8 8 9 10 9 9 10 8 9 9 7
4 6 7 6 5 6 5 3 2 3 2 3 3 3 3 3 5 2 4 2 2 4 4 2 4 7 7 5 4 6 7 7 9 9 10 10 10 10 9 9 8 8 8 6
3 2 4 6 1 2 2 2 2 1 1 2 4 3 2 2 2 2 2 3 2 3 3 3 6 7 7 6 6 7 8 7 8 8 9 9 9 9 9 7 7 7 7 7
2 2 3 1 3 3 3 2 3 2 2 1 1 3 3 2 1 3 2 2 1 3 3 5 7 7 6 7 7 7 7 8 8 8 8 8 8 8 8 7 6 6 6 6
2 2 1 2 2 2 3 1 1 3 3 1 2 3 2 3 2 3 1 2 4 5 6 5 7 8 9 8 8 8 8 9 8 8 7 7 7 7 7 7 6 6 6 5
Wind_Direction
146 136 136 150 240 343 307 195 119 8 312 86 54 88 46 353 343 335 277 284 287 280 291 277 268 261 294 356 345 324 238 271 247 242 244 264 239 243 204 252 169 257 317 352
145 134 126 127 258 346 152 79 85 74 283 98 106 111 141 252 345 1 343 289 292 310 294 292 260 266 272 324 22 351 346 233 242 227 214 218 224 201 111 68 19 279 311 40
152 136 136 153 205 120 281 153 128 115 73 74 110 117 89 103 87 94 301 302 327 328 296 265 256 267 263 269 302 207 313 254 253 276 343 282 190 186 190 187 209 281 267 292
155 144 148 155 176 131 243 13 91 9 149 116 90 132 76 27 343 204 299 148 75 3 299 307 262 258 264 280 203 267 146 257 224 209 358 294 253 202 200 213 237 257 302 280
181 168 172 169 183 172 74 120 175 182 123 133 136 83 87 322 353 287 316 245 307 313 276 293 302 325 306 280 348 287 226 267 195 199 192 246 246 237 242 245 261 265 282 287
188 175 175 178 182 255 108 58 344 271 144 146 171 102 86 282 321 271 247 314 310 303 320 280 289 284 268 259 279 280 256 276 183 182 182 249 250 229 206 250 274 318 323 331
179 184 187 185 178 279 96 131 149 183 141 192 150 239 294 296 295 276 295 296 279 308 314 294 269 250 249 251 250 227 261 286 316 131 213 224 88 352 43 289 320 14 352 5
187 187 184 182 186 169 172 147 194 169 177 255 234 252 270 284 273 268 288 302 307 315 295 285 289 248 233 237 235 212 218 259 277 253 208 329 196 53 28 360 68 27 0 358
188 188 186 177 181 169 179 170 116 106 157 227 290 267 267 290 296 281 277 311 311 289 284 265 261 278 251 171 157 171 214 249 267 183 248 231 74 39 353 319 221 13 0 340
183 190 194 193 188 180 191 156 177 126 212 248 221 247 315 308 269 281 308 336 315 294 305 270 270 214 226 198 188 185 161 210 228 229 246 259 38 339 323 250 29 2 5 10
191 201 202 203 208 177 185 153 194 195 214 270 228 235 249 243 246 280 347 306 68 305 303 305 335 329 32 287 95 162 194 189 189 208 246 244 1 44 341 353 341 10 41 65
184 183 188 192 183 170 185 185 180 204 265 323 319 279 269 254 266 295 278 300 301 323 298 354 300 317 356 349 143 32 95 9 348 345 30 57 36 55 35 20 59 43 71 87
185 191 198 198 196 182 189 193 143 155 271 264 245 255 248 231 239 234 245 199 313 228 360 318 300 306 331 353 37 323 83 17 10 316 34 46 45 64 56 55 69 66 71 86
189 196 202 209 212 211 196 181 175 177 256 282 269 255 246 239 223 218 225 261 290 291 302 304 285 297 12 332 329 330 4 314 347 76 120 101 56 52 66 72 73 74 72 81
192 200 209 215 224 232 216 208 195 201 228 294 304 299 265 236 208 207 218 233 245 261 279 257 272 303 318 315 277 60 3 357 316 13 16 75 57 52 58 71 71 74 86 85
201 210 215 226 227 220 213 257 192 203 197 234 241 7 240 193 205 214 206 205 210 225 226 258 253 307 291 299 4 67 40 25 343 82 79 93 90 66 65 76 76 73 73 73
207 213 226 237 237 213 185 241 37 180 137 187 225 246 166 182 174 164 183 188 205 234 241 235 271 289 243 267 17 75 65 43 47 117 122 91 23 87 77 77 81 85 83 81
212 222 238 250 269 100 171 195 173 116 115 203 214 234 230 182 192 176 183 175 215 214 256 243 254 271 240 247 90 55 51 72 61 58 72 94 115 109 96 94 93 89 83 84
219 241 165 88 128 178 128 125 111 111 256 195 205 231 170 166 201 121 175 203 213 243 241 232 244 233 241 64 102 66 30 12 91 106 100 101 101 102 95 82 78 85 85 87
180 135 163 145 141 117 117 112 161 198 195 223 241 196 183 192 176 173 194 196 236 231 207 168 218 103 95 87 84 74 53 29 319 149 137 123 104 95 82 77 72 84 91 94
115 133 99 105 145 205 180 140 193 163 217 198 214 205 162 201 179 177 227 190 214 244 154 214 199 156 116 115 94 77 66 62 64 67 61 60 111 119 112 99 93 95 98 94
131 98 105 109 189 172 182 180 168 220 232 168 174 190 216 157 205 207 175 234 186 251 145 222 218 90 121 117 92 75 68 71 72 69 88 94 97 104 112 110 104 98 99 103
137 111 156 190 155 200 206 188 195 208 190 180 163 158 165 152 192 202 208 224 198 131 205 70 52 122 130 128 119 99 90 90 91 81 78 83 86 81 99 99 95 98 88 85
179 170 156 216 182 225 192 209 165 73 142 167 161 132 189 171 182 248 243 77 230 201 216 106 124 137 128 104 99 111 96 95 99 97 97 97 97 96 94 97 106 110 104 99
164 174 196 199 78 63 84 85 130 40 324 159 143 136 210 150 205 220 266 208 202 357 56 94 125 127 123 119 119 119 112 107 104 107 104 102 103 102 99 96 100 103 106 100
70 73 166 137 181 154 163 134 128 2 298 189 201 137 163 145 229 197 202 244 201 103 87 112 120 117 112 112 105 107 116 119 118 117 116 114 113 112 108 109 106 109 113 113
94 104 63 55 42 105 97 42 50 338 246 181 198 173 98 129 182 191 218 1 64 121 126 116 109 130 129 129 129 132 133 127 123 121 118 113 115 127 135 133 140 146 135 128